Location: Newark
(25.4800°N, 85.7200°E)
Time: 07:20:33
(UTC+00:00)

Vanguard 1 Rocket - Pass Details

Date: 19 August 2019
Orbit: 651 x 4225 km, 34.3° (Epoch: 19 September)

Event Time Altitude Azimuth Distance (km) Brightness Sun altitude
Rises 01:49:05 0° 294° (WNW) 4,054 10.2 25.2°
Reaches altitude 10° 01:51:16 10° 296° (WNW) 3,362 9.9 25.7°
Maximum altitude 02:00:07 85° 25° (NNE) 2,048 9.7 27.7°
Drops below altitude 10° 02:18:21 10° 115° (ESE) 6,405 12.9 31.8°
Sets 02:24:23 0° 116° (ESE) 7,867 13.0 33.2°
